EW9945 Weather Reports


time (UTC)temp
C
wind
direction
speed
KPH
gust
KPH
rain 1hr
cm
rain 24hr
cm
rain mn
cm
humidity
%
barometer
mb
20260903121604 18 44 0.0 4.8 0.00 1.78 0.03 92 1014.9
20260903120059 18 42 0.0 3.2 0.00 1.78 0.03 93 1014.8
20260903114604 18 42 0.0 0.0 0.03 1.78 0.03 93 1014.8
20260903113058 18 42 0.0 0.0 0.03 1.78 0.03 93 1014.4
20260903111623 18 42 0.0 0.0 0.03 1.78 0.03 93 1014.3
20260903110108 18 42 0.0 0.0 0.03 1.78 0.03 93 1014.2
20260903104622 18 42 0.0 0.0 0.00 1.75 0.00 92 1013.9
20260903103054 18 42 0.0 0.0 0.00 1.75 0.00 93 1013.6
20260903101551 18 42 0.0 1.6 0.00 1.75 0.00 93 1013.5
20260903100050 18 42 0.0 0.0 0.00 1.75 0.00 92 1013.2
20260903094555 18 42 0.0 0.0 0.03 1.75 0.00 92 1013.5
20260903093047 18 42 0.0 0.0 0.05 1.75 0.00 92 1014.2
20260903091543 18 42 0.0 4.8 0.05 1.75 0.00 92 1014.4
20260903090048 18 40 0.0 4.8 0.08 1.75 1.75 92 1014.5
20260903084543 19 39 0.0 0.0 0.05 1.73 1.73 92 1014.6
20260903083042 18 41 0.0 3.2 0.05 1.70 1.70 92 1014.2
20260903081543 19 304 0.0 6.4 0.05 1.70 1.70 92 1014.0
20260903080041 19 142 1.6 22.5 0.03 1.68 1.68 92 1013.0
20260903074540 18 155 0.0 11.3 0.05 1.68 1.68 92 1013.3
20260903073045 18 108 6.4 17.7 0.10 1.68 1.68 92 1013.7
20260903071539 18 270 3.2 11.3 0.15 1.65 1.65 92 1014.6
20260903070043 18 128 0.0 8.0 0.15 1.65 1.65 92 1014.3
20260903064538 18 291 0.0 0.0 0.15 1.65 1.65 92 1015.0
20260903063038 18 292 0.0 3.2 0.10 1.60 1.60 92 1015.4
20260903061555 19 286 0.0 6.4 0.03 1.50 1.50 92 1014.8
20260903060037 19 159 0.0 4.8 0.08 1.50 1.50 92 1014.0
20260903054536 19 147 0.0 9.7 0.13 1.50 1.50 91 1014.2
20260903053041 19 296 1.6 8.0 0.36 1.50 1.50 91 1014.5
20260903051540 20 126 11.3 22.5 0.38 1.45 1.45 91 1014.0
20260903050038 19 150 3.2 14.5 0.38 1.42 1.42 92 1014.8
20260903044536 19 156 1.6 14.5 0.30 1.37 1.37 93 1015.0
20260903043040 18 114 4.8 22.5 0.18 1.24 1.24 92 1016.0
20260903041540 18 132 0.0 0.0 0.03 1.09 1.09 92 1015.3
20260903040038 18 132 0.0 3.2 0.00 1.07 1.07 92 1015.5
20260903034536 18 132 0.0 0.0 0.00 1.07 1.07 92 1015.3
20260903033038 18 132 1.6 6.4 0.00 1.07 1.07 92 1015.5
20260903031542 19 132 0.0 1.6 0.00 1.07 1.07 92 1016.2
20260903030104 18 132 0.0 8.0 0.03 1.07 1.07 92 1016.3
20260903024538 19 131 0.0 0.0 0.64 1.07 1.07 92 1016.0
20260903023037 19 130 0.0 9.7 0.64 1.07 1.07 91 1015.8
20260903021536 19 146 1.6 9.7 0.64 1.07 1.07 91 1014.3
20260903020034 20 28 0.0 16.1 0.64 1.07 1.07 89 1015.2
20260903014533 22 328 16.1 22.5 0.00 0.43 0.43 91 1016.5
20260903013041 22 165 0.0 11.3 0.00 0.43 0.43 91 1015.4
20260903011532 22 117 0.0 1.6 0.00 0.43 0.43 91 1015.2
20260903010036 22 117 0.0 1.6 0.00 0.43 0.43 91 1014.1
20260903004531 22 115 0.0 0.0 0.00 0.43 0.43 91 1014.2
20260903003037 22 169 0.0 11.3 0.00 0.43 0.43 90 1013.6
20260903001532 22 115 4.8 20.9 0.00 0.43 0.43 90 1012.6
20260903000031 22 156 0.0 11.3 0.00 0.43 0.43 90 1013.3
20260902234529 23 198 0.0 20.9 0.00 0.43 0.43 88 1013.6
20260902233029 23 153 0.0 4.8 0.00 0.43 0.43 87 1014.0
20260902231531 23 151 0.0 0.0 0.00 0.43 0.43 87 1014.0
20260902230028 23 151 0.0 0.0 0.00 0.43 0.43 86 1013.9
20260902224544 24 112 0.0 0.0 0.00 0.43 0.43 86 1013.3
20260902223027 24 117 1.6 11.3 0.00 0.43 0.43 85 1013.1
20260902221534 24 130 0.0 9.7 0.00 0.43 0.43 85 1013.6
20260902220046 25 196 0.0 11.3 0.00 0.46 0.43 84 1013.6
20260902214522 25 128 0.0 11.3 0.00 0.46 0.43 83 1013.9
20260902213022 25 123 1.6 14.5 0.00 0.46 0.43 83 1014.2
20260902211525 25 186 0.0 12.9 0.00 0.46 0.43 82 1014.4
20260902210022 25 140 0.0 11.3 0.00 0.46 0.43 82 1014.5
20260902204523 25 148 0.0 6.4 0.00 0.46 0.43 82 1014.7
20260902203014 25 111 0.0 11.3 0.00 0.46 0.43 82 1014.9
20260902201534 25 123 3.2 17.7 0.00 0.46 0.43 84 1015.0
20260902200009 24 171 0.0 17.7 0.00 0.46 0.43 84 1014.9
20260902194519 24 157 0.0 14.5 0.00 0.46 0.43 85 1015.0
20260902193016 23 156 1.6 16.1 0.03 0.46 0.43 86 1015.1
20260902191505 23 153 0.0 9.7 0.03 0.46 0.43 87 1015.4
20260902190004 22 119 3.2 11.3 0.03 0.46 0.43 91 1015.7
20260902184504 22 121 0.0 4.8 0.03 0.46 0.43 90 1016.2
20260902183003 22 121 0.0 1.6 0.00 0.43 0.41 90 1016.7
20260902181504 22 117 1.6 16.1 0.00 0.43 0.41 89 1015.8
20260902180006 22 123 4.8 14.5 0.00 0.43 0.41 88 1016.0
20260902174502 23 190 0.0 4.8 0.00 0.43 0.41 87 1016.1
20260902173003 23 179 0.0 8.0 0.00 0.43 0.41 86 1015.6
20260902171501 22 110 4.8 17.7 0.00 0.43 0.41 89 1015.3
20260902170000 23 108 3.2 14.5 0.00 0.43 0.41 89 1015.3
20260902164603 23 140 0.0 11.3 0.00 0.43 0.41 90 1015.7
20260902163158 22 130 3.2 11.3 0.00 0.43 0.41 91 1016.0
20260902161556 22 127 0.0 17.7 0.00 0.43 0.41 91 1016.6
20260902160105 22 165 1.6 11.3 0.00 0.43 0.41 92 1016.5
20260902154552 21 40 0.0 4.8 0.00 0.43 0.41 92 1016.6
20260902153054 21 40 0.0 0.0 0.00 0.43 0.41 93 1016.3
20260902151548 21 40 0.0 1.6 0.03 0.43 0.41 93 1016.3
20260902150046 20 40 0.0 0.0 0.08 0.43 0.41 93 1016.6
20260902144546 20 40 0.0 0.0 0.15 0.43 0.41 93 1016.8
20260902143045 20 40 0.0 0.0 0.33 0.43 0.41 93 1016.9
20260902141546 20 40 0.0 0.0 0.36 0.41 0.38 93 1017.1
20260902140045 20 39 6.4 9.7 0.36 0.38 0.36 92 1015.9
20260902134551 20 37 0.0 0.0 0.25 0.28 0.25 92 1017.1
20260902133043 20 37 0.0 3.2 0.10 0.13 0.10 92 1017.0
20260902131545 20 37 0.0 1.6 0.05 0.08 0.05 92 1017.1
20260902130043 20 36 0.0 9.7 0.00 0.03 0.00 92 1017.1
20260902124539 20 36 0.0 3.2 0.00 0.03 0.00 92 1016.5
20260902123044 20 34 0.0 8.0 0.00 0.03 0.00 92 1016.0